Volver al catálogo

ARIANE 5 R/B

ActivoHEO
NORAD 40615·ROCKET BODY·🇫🇷 France

Lanzado Apr 26, 2015 desde Guiana Space Centre

Loading…

Próximos Pases (próximas 24 horas)

TLE

ActualizadoSource: Space-Track

Época: Sep 14, 2026, 14:00 UTC

1 40615U 15022C   26257.58393208  .00006724  00000-0  53507-3 0  9998
2 40615   5.6898  41.9038 6613796   9.3900 358.4587  3.19396797110239

Sigue ARIANE 5 R/B en tiempo real con AllMySat

Download on the App Store